Location: *
(17.3280°S, 114.7300°W)
Time: 01:14:50
(UTC+00:00)

NOSS 3-4 (A) - Visible Passes

Search period start: 27 November 2020 00:00
Search period end: 07 December 2020 00:00
Orbit: 885 x 1327 km, 63.4° (Epoch: 06 November)

Date Brightness Start Highest point End Pass type
(mag) Time Alt. Az. Time Alt. Az. Time Alt. Az.
27 Nov 5.9 08:36:26 10° SSE 08:38:39 16° SSE 08:38:39 16° SSE visible
27 Nov 5.7 10:25:39 10° SW 10:25:59 11° SW 10:25:59 11° SW visible
28 Nov 5.8 09:40:36 10° SSW 09:41:27 14° SSW 09:41:27 14° SSW visible
29 Nov 5.9 08:56:03 10° SSW 08:57:08 15° S 08:57:08 15° S visible
30 Nov 6.1 08:12:02 10° S 08:12:59 13° S 08:12:59 13° S visible
02 Dec 6.2 08:32:19 10° SSW 08:32:22 10° SSW 08:32:22 10° SSW visible
03 Dec 6.2 07:47:58 10° S 07:48:30 12° S 07:48:30 12° S visible
04 Dec 6.2 07:04:16 10° S 07:04:40 11° SSE 07:04:40 11° SSE visible
06 Dec 6.2 07:24:09 10° SSW 07:24:37 12° SSW 07:24:37 12° SSW visible
